Location: Monrovia
(34.7865°N, 86.7139°W)
Time: 15:06:06
(UTC+00:00)

Meteor 1-13 Rocket - Pass Details

Date: 14 July 2020
Orbit: 830 x 913 km, 81.3° (Epoch: 13 August)

Event Time Altitude Azimuth Distance (km) Brightness Sun altitude
Rises 07:58:48 0° 352° (N) 3,470 8.1 -26.2°
Reaches altitude 10° 08:01:16 10° 353° (N) 2,516 7.3 -25.9°
Maximum altitude 08:06:59 86° 81° (E) 859 4.1 -25.3°
Enters shadow 08:08:12 57° 167° (SSE) 992 4.3 -25.1°
